Probability
0 0 0 0 0 0 0 0 0 0 0 0 0 0 0 0 0 0 0 0 0 13 26 32 52 52 52 48 42 42 42 35 35 32 29 23 23 23 19 19 19 19 10 10 13 10 10 10 6
0 0 0 0 0 0 0 0 0 0 0 0 0 0 0 0 0 0 0 3 0 10 19 23 42 48 48 45 35 32 32 29 32 32 29 23 23 23 23 23 13 13 10 10 13 6 6 10 3
0 0 0 0 0 0 0 0 0 0 0 0 0 0 0 0 0 3 0 3 0 6 13 19 42 42 52 42 39 29 29 29 29 26 26 23 19 23 19 19 13 13 10 10 10 6 6 3 3
0 0 0 0 0 0 0 0 0 0 0 0 0 0 0 0 0 0 0 3 6 3 13 19 39 39 35 32 35 26 26 26 26 23 26 23 19 19 16 13 13 13 10 10 6 6 3 3 3
0 0 0 0 0 0 0 0 0 0 0 0 0 0 0 0 0 3 3 3 6 6 10 19 29 42 39 35 29 26 26 19 23 23 23 23 19 23 19 19 16 13 10 10 6 6 3 3 3
0 0 0 0 0 0 0 0 0 0 0 0 0 0 0 0 3 6 3 3 3 6 19 23 26 29 32 26 26 23 23 19 23 23 23 19 23 19 19 19 19 10 10 13 10 6 3 3 3
0 0 0 0 0 0 0 0 0 0 0 0 0 0 0 0 0 3 6 3 3 6 19 19 23 19 16 16 23 23 13 16 16 19 19 16 13 13 19 23 19 13 13 13 10 6 3 3 3
0 0 0 0 0 0 0 0 0 0 0 0 0 0 0 0 0 0 3 3 3 10 10 13 16 13 13 13 10 13 10 13 10 10 6 6 6 10 10 13 10 13 13 13 3 3 3 3 3
0 0 0 0 0 0 0 0 0 0 0 0 0 0 0 0 0 0 3 3 6 10 13 13 13 10 13 10 6 0 3 3 3 3 3 3 3 3 0 0 3 10 6 6 3 3 3 3 3
0 0 0 0 0 0 0 0 0 0 0 0 0 3 0 0 0 0 0 3 3 6 6 3 6 6 3 6 3 3 0 0 0 0 0 0 0 0 0 0 0 3 0 0 3 3 3 3 3
0 0 0 0 0 0 0 0 0 0 0 0 0 3 0 0 0 0 0 0 3 3 3 3 3 3 0 0 0 3 3 0 0 0 0 0 0 0 0 0 0 0 0 0 0 0 0 0 0
0 0 0 0 0 0 0 0 0 0 0 0 0 0 0 0 0 0 0 0 0 3 0 0 0 0 0 0 0 3 3 3 0 0 0 0 0 0 0 0 0 0 0 0 0 0 0 0 0
0 0 0 0 0 0 0 0 0 0 0 0 0 0 0 0 0 0 0 0 0 6 3 0 0 0 0 0 0 0 0 3 3 0 0 0 0 0 0 0 0 0 0 0 0 0 0 0 0
0 0 0 0 0 0 0 0 0 0 0 0 0 0 0 0 0 0 0 0 0 0 3 0 0 0 0 0 0 0 0 0 3 0 0 0 0 0 0 0 0 0 0 0 0 0 0 0 0
0 0 0 0 0 0 0 0 0 0 0 0 0 0 0 0 0 0 0 0 0 0 0 0 0 0 0 0 0 0 0 0 0 0 0 0 0 0 0 0 0 0 0 0 0 0 0 0 0
0 0 0 0 0 0 0 0 0 0 0 0 0 0 0 0 0 0 0 0 0 0 0 0 3 0 0 0 0 0 0 0 0 0 0 0 0 0 0 0 0 0 0 0 0 0 0 0 0
0 0 0 0 0 0 0 0 0 0 0 0 0 0 0 0 0 0 0 0 0 0 0 0 0 0 0 0 0 0 0 0 0 0 0 0 0 0 0 0 0 0 0 0 0 0 0 0 0
0 0 0 0 0 0 0 0 0 0 0 0 0 0 0 0 0 0 0 0 0 0 0 0 0 0 0 0 0 0 0 0 0 0 0 0 0 0 0 0 0 0 0 0 0 0 0 0 0
0 0 0 0 0 0 0 0 0 0 0 0 0 0 0 0 0 0 0 0 0 0 0 0 0 0 0 0 0 0 0 0 0 0 0 0 0 0 0 0 0 0 0 0 0 0 0 0 0
0 0 0 0 0 0 0 0 0 0 0 0 0 0 0 0 0 0 0 0 0 0 0 0 0 0 0 0 0 0 0 0 0 0 0 0 0 0 0 0 0 0 0 0 0 0 0 0 0
0 0 0 0 0 0 0 0 0 0 0 0 0 0 0 0 0 0 0 0 0 0 0 0 0 0 0 0 0 0 0 0 0 0 0 0 0 0 0 0 0 0 0 0 0 0 0 0 0
0 0 0 0 0 0 0 0 0 0 0 0 0 0 0 0 0 0 0 0 0 0 0 0 0 0 0 0 0 0 0 0 0 0 0 0 0 0 0 0 0 0 0 0 0 0 0 0 0
0 0 0 0 0 0 0 0 0 0 0 0 0 0 0 0 0 0 0 0 0 0 0 0 0 0 0 0 0 0 0 0 0 0 0 0 0 0 0 0 0 0 0 0 0 0 0 0 0
0 0 0 0 0 0 0 0 0 0 0 0 0 0 0 0 0 0 0 0 0 0 0 0 0 0 0 0 0 0 0 0 0 0 0 0 0 0 0 0 0 0 0 0 0 0 0 0 0
0 0 0 0 0 0 0 0 0 0 0 0 0 0 0 0 0 0 0 3 0 0 0 0 0 0 0 0 0 0 0 0 0 0 0 0 0 0 0 0 0 0 0 0 0 0 0 0 0
0 0 0 0 0 0 0 0 0 0 0 0 0 0 0 0 0 0 0 0 3 0 0 0 0 0 0 0 0 0 0 0 0 0 0 0 0 0 0 0 0 0 0 0 0 0 0 0 0
0 0 0 0 0 0 0 0 0 0 0 0 0 0 0 0 0 0 0 0 0 0 0 0 0 0 0 0 0 0 0 0 0 0 0 0 0 0 0 0 0 0 0 0 0 0 0 0 0
0 0 0 0 0 0 0 0 0 0 0 0 0 0 0 0 0 0 0 0 0 0 0 0 0 0 0 0 0 0 0 0 0 0 0 0 0 0 0 0 0 0 0 0 0 0 0 0 0
0 0 0 0 0 0 0 0 0 0 0 0 0 0 0 0 0 0 0 0 0 0 0 0 0 0 0 0 0 0 0 0 0 0 0 0 0 0 0 0 0 0 0 0 0 0 0 0 0
0 0 0 0 0 0 0 0 0 0 0 0 0 0 0 0 0 0 0 0 0 0 0 0 0 0 0 0 0 0 0 0 0 0 0 0 0 0 0 0 0 0 0 0 0 0 0 0 0
Height
5830 5831 5833 5835 5836 5837 5839 5841 5842 5843 5844 5845 5845 5846 5847 5849 5850 5853 5852 5851 5852 5852 5852 5853 5853 5853 5854 5854 5854 5855 5855 5855 5856 5856 5856 5856 5857 5857 5857 5857 5856 5856 5856 5856 5856 5856 5856 5856 5856
5825 5827 5829 5830 5831 5833 5836 5837 5839 5840 5840 5841 5842 5843 5844 5845 5846 5847 5848 5848 5849 5849 5850 5850 5850 5851 5851 5851 5852 5852 5852 5853 5853 5854 5854 5854 5854 5854 5854 5854 5854 5854 5854 5854 5854 5854 5854 5853 5853
5820 5822 5824 5825 5826 5829 5832 5834 5835 5836 5837 5838 5839 5840 5841 5842 5843 5843 5844 5845 5845 5846 5846 5847 5847 5847 5848 5848 5849 5849 5849 5850 5850 5851 5851 5851 5851 5851 5852 5852 5851 5851 5851 5851 5851 5851 5851 5851 5851
5815 5817 5819 5820 5822 5825 5827 5829 5830 5831 5832 5833 5835 5836 5837 5838 5839 5840 5841 5841 5842 5842 5842 5843 5843 5844 5844 5845 5845 5846 5846 5847 5847 5847 5848 5848 5848 5848 5848 5848 5848 5848 5848 5848 5848 5848 5848 5848 5848
5809 5811 5813 5815 5817 5820 5822 5824 5825 5826 5828 5829 5830 5831 5833 5834 5835 5836 5837 5837 5838 5838 5839 5839 5840 5840 5840 5841 5841 5842 5842 5843 5843 5844 5844 5845 5845 5845 5845 5845 5845 5845 5845 5844 5844 5844 5844 5844 5844
5804 5806 5808 5810 5813 5814 5816 5818 5819 5821 5823 5824 5826 5827 5828 5830 5830 5831 5832 5833 5833 5834 5834 5835 5835 5836 5836 5836 5837 5837 5838 5839 5839 5840 5840 5840 5841 5841 5841 5841 5841 5841 5840 5840 5840 5840 5840 5840 5840
5799 5801 5803 5805 5807 5809 5811 5812 5813 5815 5817 5819 5821 5822 5823 5825 5826 5826 5827 5828 5829 5829 5829 5830 5830 5831 5831 5831 5831 5832 5833 5834 5834 5835 5835 5836 5836 5836 5836 5836 5836 5836 5836 5835 5835 5835 5835 5835 5834
5793 5795 5797 5799 5801 5803 5806 5806 5808 5809 5812 5813 5815 5816 5818 5820 5821 5821 5822 5823 5824 5824 5824 5825 5825 5825 5825 5825 5826 5826 5827 5828 5829 5830 5830 5831 5831 5831 5831 5831 5831 5831 5830 5830 5830 5829 5829 5829 5829
5787 5790 5792 5794 5796 5798 5800 5801 5803 5804 5806 5807 5809 5811 5812 5814 5815 5816 5817 5818 5818 5819 5819 5819 5820 5819 5819 5819 5819 5820 5821 5822 5823 5824 5825 5825 5825 5825 5825 5825 5825 5825 5825 5824 5824 5823 5823 5823 5823
5781 5783 5787 5789 5790 5792 5793 5795 5797 5798 5799 5801 5803 5804 5806 5808 5809 5810 5811 5812 5812 5813 5813 5814 5814 5813 5813 5812 5813 5814 5815 5816 5817 5818 5819 5819 5819 5819 5819 5819 5819 5818 5818 5818 5817 5817 5817 5816 5816
5775 5778 5780 5782 5783 5785 5787 5788 5790 5791 5793 5795 5797 5798 5799 5801 5802 5803 5804 5806 5806 5807 5807 5807 5807 5807 5807 5806 5807 5808 5809 5810 5811 5811 5812 5812 5812 5812 5812 5812 5812 5811 5811 5811 5810 5810 5809 5809 5809
5768 5771 5773 5775 5776 5778 5780 5781 5783 5785 5787 5789 5790 5791 5793 5794 5795 5797 5798 5799 5800 5800 5801 5801 5801 5801 5801 5801 5801 5801 5802 5803 5804 5805 5805 5805 5805 5805 5805 5805 5804 5804 5803 5803 5803 5802 5802 5801 5801
5761 5764 5766 5768 5769 5771 5772 5774 5776 5778 5780 5781 5783 5784 5786 5787 5789 5790 5791 5792 5792 5793 5794 5794 5795 5795 5795 5795 5795 5795 5796 5796 5797 5797 5797 5797 5797 5797 5797 5797 5796 5796 5795 5795 5794 5793 5793 5792 5792
5754 5756 5758 5760 5762 5763 5765 5767 5769 5771 5772 5774 5775 5777 5778 5779 5781 5783 5784 5785 5786 5786 5787 5787 5788 5788 5788 5788 5789 5789 5789 5789 5789 5789 5789 5789 5789 5789 5788 5788 5788 5787 5786 5786 5785 5784 5783 5783 5782
5746 5748 5750 5752 5754 5756 5757 5759 5762 5764 5764 5766 5767 5769 5770 5772 5773 5775 5776 5777 5778 5779 5780 5780 5781 5781 5781 5781 5781 5782 5782 5781 5781 5781 5781 5781 5781 5780 5780 5779 5779 5778 5777 5776 5775 5774 5773 5772 5772
5738 5740 5743 5746 5747 5748 5751 5752 5754 5755 5756 5758 5759 5761 5762 5764 5765 5767 5768 5769 5770 5771 5772 5772 5773 5773 5774 5774 5774 5774 5774 5773 5773 5773 5773 5772 5772 5771 5771 5770 5770 5769 5767 5766 5765 5764 5763 5762 5761
5730 5732 5735 5738 5739 5740 5741 5744 5747 5747 5748 5750 5751 5753 5754 5756 5758 5759 5760 5761 5762 5763 5764 5764 5765 5765 5765 5765 5765 5765 5765 5764 5764 5764 5764 5763 5763 5762 5761 5760 5759 5758 5757 5756 5754 5753 5753 5752 5752
5723 5725 5727 5729 5731 5732 5733 5735 5738 5738 5740 5741 5743 5745 5746 5748 5750 5751 5752 5753 5753 5754 5755 5756 5756 5756 5756 5756 5756 5756 5756 5755 5754 5754 5753 5753 5752 5752 5751 5750 5749 5747 5746 5745 5743 5742 5741 5741 5741
5714 5716 5718 5720 5721 5723 5724 5726 5729 5730 5731 5733 5735 5736 5738 5739 5741 5742 5743 5744 5744 5745 5746 5746 5747 5746 5746 5746 5746 5746 5746 5745 5744 5743 5743 5742 5742 5741 5740 5739 5737 5736 5735 5733 5732 5731 5730 5730 5730
5705 5707 5710 5712 5713 5714 5715 5717 5720 5721 5723 5725 5726 5728 5729 5731 5732 5733 5734 5734 5735 5736 5736 5736 5737 5736 5736 5736 5736 5735 5735 5734 5733 5733 5732 5731 5731 5730 5729 5728 5726 5725 5723 5722 5721 5720 5720 5719 5719
5697 5700 5702 5703 5704 5705 5707 5709 5711 5713 5714 5716 5718 5719 5720 5722 5723 5724 5725 5725 5725 5726 5726 5726 5726 5726 5726 5726 5725 5725 5724 5723 5723 5722 5721 5720 5720 5719 5718 5717 5715 5713 5712 5710 5710 5709 5709 5709 5708
5690 5692 5693 5694 5695 5696 5698 5699 5704 5705 5706 5708 5710 5711 5712 5713 5714 5715 5715 5716 5716 5716 5716 5716 5716 5716 5715 5715 5715 5714 5713 5713 5712 5711 5710 5709 5709 5708 5707 5705 5704 5702 5700 5699 5698 5698 5697 5697 5697
5682 5684 5685 5686 5687 5688 5689 5690 5695 5696 5698 5700 5702 5702 5703 5704 5705 5705 5706 5706 5706 5706 5706 5706 5706 5705 5705 5704 5704 5703 5702 5701 5701 5700 5699 5698 5698 5697 5696 5694 5693 5691 5690 5689 5687 5686 5686 5686 5686
5675 5676 5677 5677 5678 5679 5683 5683 5686 5688 5691 5692 5693 5693 5694 5694 5695 5695 5695 5696 5696 5696 5696 5696 5696 5695 5694 5694 5693 5693 5692 5691 5690 5689 5688 5687 5686 5686 5685 5683 5682 5681 5680 5678 5677 5676 5675 5675 5675
5667 5669 5669 5669 5669 5672 5675 5674 5678 5681 5683 5684 5685 5685 5685 5685 5686 5686 5686 5686 5686 5686 5686 5686 5685 5685 5684 5683 5682 5682 5681 5680 5679 5678 5677 5676 5675 5675 5674 5672 5671 5670 5669 5668 5667 5666 5665 5664 5664
5660 5662 5663 5663 5663 5666 5667 5667 5672 5673 5674 5675 5676 5676 5676 5676 5676 5677 5677 5677 5676 5676 5676 5675 5675 5674 5673 5672 5671 5671 5670 5669 5668 5667 5666 5665 5664 5664 5662 5661 5661 5659 5658 5657 5656 5655 5654 5654 5654
5652 5653 5655 5656 5656 5657 5658 5660 5663 5664 5665 5666 5667 5667 5667 5667 5667 5667 5666 5666 5666 5665 5665 5664 5664 5663 5662 5661 5660 5659 5659 5658 5657 5656 5655 5654 5653 5652 5652 5650 5650 5648 5647 5646 5645 5644 5644 5644 5643
5645 5646 5648 5648 5648 5648 5650 5652 5655 5656 5657 5657 5658 5657 5657 5657 5657 5657 5656 5656 5655 5654 5654 5654 5653 5652 5651 5650 5649 5648 5648 5647 5646 5645 5644 5643 5642 5641 5640 5640 5639 5637 5636 5635 5635 5634 5633 5633 5632
5638 5639 5639 5640 5640 5641 5642 5647 5647 5648 5648 5648 5648 5648 5647 5647 5647 5646 5646 5645 5645 5644 5643 5643 5642 5642 5641 5640 5638 5637 5636 5635 5635 5634 5633 5632 5631 5630 5629 5628 5628 5627 5626 5625 5624 5623 5622 5622 5621
5629 5631 5631 5633 5633 5633 5634 5640 5639 5639 5638 5638 5638 5637 5637 5637 5636 5636 5635 5635 5634 5633 5633 5632 5632 5631 5630 5629 5628 5627 5625 5624 5623 5622 5621 5620 5619 5618 5618 5617 5616 5615 5615 5614 5613 5612 5611 5610 5610
Wind_Speed
24 23 23 23 23 23 21 19 18 17 17 16 17 16 15 15 15 15 14 14 14 14 14 13 13 13 13 13 12 12 12 12 12 12 12 12 12 12 12 12 12 12 12 13 12 12 12 12 12
25 24 25 25 25 25 22 21 19 18 18 17 18 18 18 17 16 16 16 16 16 16 16 16 16 15 15 15 14 14 14 14 14 14 14 14 14 14 14 14 14 15 14 14 14 14 14 14 13
26 26 26 27 27 26 24 22 22 20 20 19 19 19 19 19 19 18 18 17 17 17 17 17 17 17 17 17 17 17 17 17 16 16 16 16 16 16 16 15 15 16 16 17 16 16 16 16 15
26 26 27 28 27 26 25 24 24 23 22 21 21 21 20 21 21 20 19 19 19 18 18 18 18 19 19 19 19 19 19 19 19 18 18 18 18 17 17 17 17 17 18 19 19 18 18 18 18
27 27 27 27 26 26 26 25 25 25 24 23 23 23 22 22 22 21 21 21 21 20 20 20 19 20 20 21 21 21 20 20 20 20 20 20 19 19 19 19 19 20 20 20 21 20 20 20 20
28 28 28 27 26 26 26 26 27 26 25 25 25 25 24 24 24 23 23 22 22 23 22 22 21 21 21 22 22 22 22 22 22 22 22 22 22 21 22 22 22 22 22 22 23 23 23 23 23
29 29 28 27 26 27 26 27 27 27 27 26 26 26 25 25 25 25 24 24 24 24 24 23 23 23 23 23 24 24 24 24 24 24 24 24 24 24 24 24 24 24 24 25 25 26 26 26 26
29 29 29 28 27 27 27 27 27 27 27 27 28 28 27 27 26 26 26 25 25 25 25 25 25 25 25 25 26 26 26 26 26 26 26 26 26 26 26 26 26 27 27 27 27 28 28 28 28
30 30 29 28 29 28 28 28 28 28 29 29 29 29 29 28 28 28 28 27 26 27 26 26 26 26 27 27 27 27 27 27 27 27 27 28 28 28 28 29 29 29 29 29 30 30 30 30 30
30 30 28 29 29 29 29 29 29 29 30 30 30 30 30 29 29 29 28 28 27 28 27 27 27 28 28 28 28 28 28 29 29 29 30 30 30 30 31 31 31 31 31 31 32 32 32 32 32
31 31 29 29 30 30 30 30 30 30 30 30 31 31 30 29 29 29 29 28 28 28 28 27 28 28 28 29 29 30 30 31 31 31 31 31 32 32 32 33 33 33 33 33 33 33 34 34 34
32 31 31 31 31 32 32 32 32 32 31 32 32 32 31 31 30 29 29 29 29 29 29 28 29 29 29 29 30 31 31 32 32 33 33 34 34 34 35 35 35 34 34 35 35 35 36 36 36
33 32 32 32 32 33 33 33 33 32 32 33 32 32 32 31 31 31 31 30 30 30 30 30 30 30 31 31 31 31 32 32 33 34 34 35 35 35 36 37 36 36 36 37 37 37 37 38 38
34 34 34 33 33 33 33 33 33 32 33 33 34 34 34 33 32 33 33 32 31 31 31 31 32 32 32 32 32 33 33 34 34 35 35 35 36 36 36 37 38 38 38 38 38 38 38 38 39
35 35 34 34 34 34 35 35 34 33 34 34 34 35 35 35 34 34 33 33 32 32 33 33 33 33 33 33 34 34 34 35 35 35 35 35 36 36 36 37 38 39 40 40 39 39 39 39 39
35 35 35 34 34 35 36 36 35 35 35 35 35 34 34 34 34 34 34 33 33 33 33 33 34 34 34 34 35 36 37 37 37 37 38 38 38 37 38 38 39 40 41 41 41 41 40 39 38
35 35 35 34 34 34 35 35 34 34 34 34 35 35 35 35 35 35 35 35 35 35 35 35 36 35 36 37 37 37 38 39 39 39 39 39 39 39 40 40 41 41 42 42 42 42 41 40 40
34 35 34 34 34 35 35 35 35 35 35 35 35 36 36 36 35 35 36 36 37 36 36 37 37 37 38 38 39 39 40 40 41 41 41 41 42 42 42 42 43 43 43 44 43 42 42 42 42
34 34 35 35 35 35 35 35 35 35 36 36 36 36 36 36 35 36 36 37 37 37 38 39 39 39 39 39 40 40 41 41 42 43 43 43 44 44 44 44 44 44 44 44 44 43 43 43 43
34 34 33 34 34 35 35 35 35 35 36 35 35 35 35 35 36 36 37 38 38 38 39 39 39 40 40 41 40 41 41 42 43 44 44 44 44 45 45 44 44 45 45 45 44 44 44 43 43
34 33 33 33 33 34 35 35 34 34 34 35 35 35 36 36 35 35 36 37 37 38 38 39 40 40 40 40 41 41 42 43 43 43 44 44 44 44 44 44 44 44 44 43 44 44 44 43 44
33 34 34 33 33 33 34 35 33 34 34 34 34 34 35 35 36 36 36 37 38 37 38 38 39 39 39 40 41 41 41 42 43 43 43 43 43 43 44 44 44 44 43 43 43 44 45 45 45
32 32 33 33 33 33 33 35 33 33 33 32 32 33 34 35 36 36 37 37 37 37 37 38 38 39 39 40 41 41 41 41 42 43 42 43 43 43 43 43 43 42 42 42 42 43 44 45 45
29 29 30 30 31 32 30 32 32 31 30 31 31 32 33 34 35 36 36 37 37 37 37 37 38 39 40 41 41 41 41 41 41 42 42 42 42 42 42 42 41 41 42 42 42 43 44 44 45
27 27 27 29 31 32 30 31 31 30 29 29 29 30 31 32 34 34 35 36 36 37 37 38 39 40 40 40 41 40 40 41 42 41 41 42 41 41 42 42 42 42 42 43 43 44 44 44 44
27 27 28 29 30 31 31 31 30 29 29 29 29 29 30 32 33 34 35 36 37 38 38 39 39 39 40 41 41 41 41 41 41 41 41 41 42 41 41 42 42 42 42 43 43 44 44 44 44
28 28 28 29 30 30 30 30 30 30 30 30 30 30 31 32 32 34 35 36 37 38 38 39 39 39 39 40 41 41 41 41 40 41 41 42 42 42 41 41 42 43 43 43 43 43 44 45 44
28 28 29 30 31 31 31 30 29 30 30 31 31 31 32 32 33 34 35 36 37 37 37 38 38 39 39 39 40 41 41 41 41 41 42 42 42 42 42 43 43 43 42 43 43 43 44 44 43
27 28 29 30 31 31 32 30 30 30 31 32 32 33 33 33 34 35 35 36 36 37 37 37 38 38 39 40 40 40 41 41 42 42 43 42 42 43 42 43 43 43 43 42 42 42 43 43 43
28 28 29 30 31 31 32 31 29 30 31 32 33 34 34 34 34 34 34 34 35 36 36 37 38 38 39 41 41 41 41 42 42 42 42 42 43 43 43 43 42 42 42 41 41 41 42 41 41
Wind_Direction
240 241 240 239 240 240 241 242 244 244 243 242 243 245 248 250 251 254 255 258 257 256 258 259 258 258 259 259 258 257 256 257 259 261 263 265 265 265 265 264 266 268 270 271 274 276 276 276 274
241 241 241 240 241 241 242 243 242 243 244 244 244 246 248 251 253 256 257 258 257 258 259 259 258 258 258 258 257 256 255 257 259 260 262 264 266 266 266 266 267 267 269 270 271 273 274 275 274
241 241 241 241 241 243 243 243 243 243 244 245 247 248 249 252 253 255 256 258 258 259 259 259 259 259 258 258 257 257 257 257 259 260 262 263 265 266 267 268 268 267 268 269 270 272 273 274 274
241 241 241 242 243 243 244 244 244 243 243 244 247 250 251 252 255 255 256 257 258 258 259 260 260 260 259 259 257 257 258 258 259 260 262 263 265 265 266 267 268 269 270 269 269 270 272 273 273
241 240 241 242 244 244 244 243 244 243 243 244 247 250 252 253 255 257 258 258 258 258 258 259 260 261 260 259 259 258 258 258 259 259 261 262 264 265 266 267 268 269 271 271 269 269 270 271 272
241 240 241 242 243 244 245 244 244 245 246 247 249 251 254 254 255 257 258 259 259 258 259 259 259 260 260 260 259 259 258 259 259 259 260 262 263 265 267 268 269 270 270 270 269 268 270 270 270
241 241 241 242 243 244 245 245 245 246 247 248 251 252 253 255 256 257 258 258 258 258 259 260 261 260 260 260 259 259 258 259 260 261 262 263 264 265 267 267 269 269 269 270 269 269 269 270 270
242 242 241 241 242 244 245 246 247 248 248 249 250 251 252 254 255 256 257 257 257 258 258 259 261 261 261 260 260 260 260 260 261 262 263 264 265 266 267 268 269 270 269 269 268 269 269 269 270
244 243 243 243 244 246 247 248 249 249 249 250 251 252 254 255 255 255 256 257 258 258 259 260 260 261 262 261 261 261 261 261 262 262 264 265 265 266 267 268 269 269 268 267 268 269 269 268 269
245 246 245 245 246 247 248 248 249 250 251 251 252 254 255 256 255 255 256 257 258 259 260 261 261 261 262 261 261 261 261 261 262 263 265 265 265 266 266 267 268 268 268 268 268 269 269 268 268
247 248 247 247 247 247 248 249 249 249 250 251 252 253 255 256 254 254 255 257 258 259 260 260 260 260 261 260 260 261 261 261 263 264 265 266 266 266 267 267 267 268 268 268 268 268 269 268 268
248 249 248 247 248 248 248 249 250 250 251 251 251 252 254 256 255 254 255 257 257 258 259 259 260 260 261 261 261 262 262 262 263 264 265 266 266 266 268 268 268 267 267 268 269 269 269 268 267
248 248 248 247 248 249 250 249 251 252 251 251 251 253 253 254 254 254 255 256 257 257 258 258 260 261 262 262 262 262 263 264 264 265 266 266 267 268 269 269 268 267 267 269 269 270 268 268 267
248 247 246 247 247 248 250 250 251 251 252 252 252 252 253 255 254 255 256 257 258 258 258 259 261 262 262 262 263 264 264 265 265 265 267 267 268 269 270 269 268 269 269 270 270 270 270 269 268
248 248 248 248 249 251 252 252 252 252 252 253 253 252 252 254 255 255 256 257 258 259 259 260 261 262 262 262 262 263 265 266 265 265 266 267 268 269 269 269 269 270 270 271 271 271 269 269 269
248 249 250 250 251 251 253 253 254 254 253 252 253 252 253 253 255 255 256 256 257 259 260 260 261 262 263 263 264 263 264 266 266 266 267 268 269 268 269 270 271 271 272 272 272 271 269 269 269
249 251 251 251 251 252 253 255 254 254 253 252 253 253 254 254 255 255 255 256 258 259 260 261 262 263 264 264 264 265 265 265 266 267 268 268 268 270 271 272 273 272 272 273 272 272 270 268 268
251 251 251 251 252 253 254 254 254 255 255 254 253 254 255 255 255 255 256 257 259 260 261 261 262 263 264 264 265 265 265 266 266 267 268 268 269 270 271 272 272 273 273 272 272 270 268 267 267
251 251 252 253 253 254 254 254 254 255 256 255 254 253 254 255 256 257 258 258 260 261 262 262 262 263 264 265 266 266 267 267 267 267 268 268 269 271 272 272 272 273 273 272 271 270 268 267 267
251 252 253 254 254 254 253 253 254 255 255 256 255 254 254 255 255 257 259 260 261 262 263 263 264 265 266 266 266 267 267 267 268 268 269 269 270 271 272 273 274 274 274 272 271 271 269 269 268
251 252 253 253 254 255 254 253 254 254 255 255 256 257 256 256 257 259 261 262 263 263 264 264 265 266 267 267 268 269 268 268 268 269 269 270 270 270 272 273 274 274 274 272 272 271 269 269 270
252 252 254 255 255 254 254 255 252 254 255 256 257 258 258 259 259 260 262 263 264 264 265 266 266 267 268 268 269 269 270 269 269 269 269 271 271 271 272 273 274 274 273 273 272 271 269 269 270
254 254 254 255 255 255 255 256 254 254 256 257 259 260 260 260 261 261 262 263 264 265 265 266 267 268 268 269 270 270 270 270 270 269 270 271 272 273 273 274 274 274 273 273 273 272 270 269 269
254 254 254 254 253 253 254 257 256 255 258 260 261 262 262 261 261 261 262 263 265 266 267 267 267 268 269 269 270 270 270 270 271 271 271 271 271 272 273 273 273 273 273 273 274 273 271 268 268
251 251 252 252 252 254 255 257 259 260 260 262 263 264 264 263 262 262 263 265 266 267 268 268 269 269 269 270 270 270 270 271 271 270 271 271 271 272 273 273 272 272 272 273 273 273 270 269 269
249 249 250 254 257 258 257 259 261 262 262 264 265 266 265 264 264 264 265 266 267 268 268 269 270 269 269 270 270 270 270 271 271 270 270 271 271 272 273 272 272 272 272 273 273 273 271 270 270
248 248 250 253 256 259 259 260 260 261 263 265 266 267 266 266 267 267 268 268 269 269 269 269 269 270 270 270 270 270 270 270 270 269 270 271 271 271 271 271 271 272 272 272 273 272 272 270 270
250 251 251 253 256 259 261 262 263 264 265 266 268 269 269 269 268 268 269 270 270 270 270 270 270 271 271 270 270 270 270 270 269 269 270 271 271 270 270 270 271 272 271 271 272 272 272 270 270
251 251 251 254 256 259 262 264 265 267 268 268 269 270 270 271 271 270 269 269 270 270 270 270 270 271 271 271 271 271 271 271 270 270 271 272 272 271 271 271 271 271 271 271 272 272 273 272 270
253 252 252 255 257 260 263 266 267 268 269 270 271 272 271 272 273 272 271 269 269 269 270 270 270 270 271 272 272 271 272 272 271 272 272 271 271 270 270 270 270 270 269 270 271 271 272 272 272